Location: Grand Rapids
(42.9630°N, 85.6680°W)
Time: 01:29:21
(UTC-04:00)

A-11 Canister half - Pass Details

Date: 05 June 2024
Orbit: 1524 x 1684 km, 47.3° (Epoch: 21 June)

Event Time Altitude Azimuth Distance (km) Brightness Sun altitude
Rises 17:32:37 0° 206° (SSW) 4,678 11.9 38.5°
Reaches altitude 10° 17:35:56 10° 198° (SSW) 3,688 11.4 37.9°
Maximum altitude 17:44:09 37° 135° (SE) 2,203 9.9 36.4°
Drops below altitude 10° 17:52:24 10° 72° (ENE) 3,710 10.6 34.9°
Sets 17:55:44 0° 65° (ENE) 4,708 11.1 34.3°
